This is the latest recevied weather packets stored in our database for station/object DL0OHA-13. If no packets are shown the sender has not sent any weather packets the latest 10 day(s).
| Time | Temp. | Humidity | Pressure | Rain* | Wind** | Luminosity | Snow |
|---|---|---|---|---|---|---|---|
| 1788663672 | 6.11° C | 1% | 1024.4 hPa | 0 mm | - | 0 W/m² | - |
| 1788663072 | 6.11° C | 1% | 1024.5 hPa | 0 mm | - | 0 W/m² | - |
| 1788662472 | 6.67° C | 1% | 1024.4 hPa | 0 mm | - | 0 W/m² | - |
| 1788661872 | 6.67° C | 1% | 1024.4 hPa | 0 mm | - | 0 W/m² | - |
| 1788661272 | 6.67° C | 1% | 1024.4 hPa | 0 mm | - | 0 W/m² | - |
| 1788660671 | 6.67° C | 1% | 1024.3 hPa | 0 mm | - | 0 W/m² | - |
| 1788660071 | 6.67° C | 1% | 1024.3 hPa | 0 mm | - | 0 W/m² | - |
| 1788659471 | 7.22° C | 1% | 1024.1 hPa | 0 mm | - | 0 W/m² | - |
| 1788658871 | 7.78° C | 1% | 1024 hPa | 0 mm | - | 0 W/m² | - |
| 1788658271 | 7.78° C | 1% | 1023.9 hPa | 0 mm | - | 0 W/m² | - |
| 1788657671 | 8.33° C | 1% | 1023.9 hPa | 0 mm | - | 0 W/m² | - |
| 1788657071 | 8.89° C | 1% | 1023.9 hPa | 0 mm | - | 0 W/m² | - |
| 1788656471 | 9.44° C | 1% | 1023.7 hPa | 0 mm | - | 0 W/m² | - |
| 1788655870 | 10° C | 1% | 1023.7 hPa | 0 mm | - | 0 W/m² | - |
| 1788655270 | 10.56° C | 1% | 1023.6 hPa | 0 mm | - | 0 W/m² | - |
| 1788654670 | 10.56° C | 1% | 1023.6 hPa | 0 mm | - | 0 W/m² | - |
| 1788654070 | 11.11° C | 1% | 1023.6 hPa | 0 mm | - | 0 W/m² | - |
| 1788653470 | 11.67° C | 1% | 1023.6 hPa | 0 mm | - | 0 W/m² | - |
| 1788652884 | 12.22° C | 1% | 1023.6 hPa | 0 mm | - | 0 W/m² | - |
| 1788652270 | 12.78° C | 9% | 1023.4 hPa | 0 mm | - | 0 W/m² | - |
| 1788651670 | 13.33° C | 20% | 1023.3 hPa | 0 mm | - | 0 W/m² | - |
| 1788651069 | 13.89° C | 25% | 1023.2 hPa | 0 mm | - | 0 W/m² | - |
| 1788650469 | 14.44° C | 25% | 1023.3 hPa | 0 mm | - | 0 W/m² | - |
| 1788649869 | 14.44° C | 26% | 1023.2 hPa | 0 mm | - | 0 W/m² | - |
| 1788649263 | 14.44° C | 27% | 1023 hPa | 0 mm | - | 0 W/m² | - |
* Rain latest hour (hover to see other rain measurements)
** Current wind speed in m/s (hover to see current wind gust speed)